Regional Weather Roundup
Issued by NWS

Home | Current Version | Previous Version | Text Only | Print | Product List | Glossary Off
Versions: 1 2 3 4 5 6 7 8 9 10 11 12 13 14 15 16 17 18 19 20 21 22 23 24 25 26 27 28 29 30 31 32 33 34 35 36 37 38 39 40 41 42 43 44 45 46 47 48 49 50

000
ASUS43 KDMX 280807
RWRIA

WEATHER ROUNDUP FOR IOWA
NATIONAL WEATHER SERVICE DES MOINES IA
200 AM CST SAT FEB 28 2015

NOTE: "FAIR" INDICATES FEW OR NO CLOUDS BELOW 12,000 FEET WITH NO
SIGNIFICANT WEATHER AND/OR OBSTRUCTIONS TO VISIBILITY.

* - THESE STATIONS ARE NOT NWS STATIONS...THUS NOT UNDER NWS
QUALITY CONTROL.  THEY ALSO DO NOT REPORT WEATHER SUCH
AS PRECIPITATION OR FOG.

IAZ001>003-012>014-020>022-031>034-043>046-280900-
   NORTHWEST IOWA

CITY           SKY/WX    TMP DP  RH WIND       PRES   REMARKS
CARROLL *      CLEAR     -2  -8  78 CALM      30.52S
CHEROKEE *     CLEAR     -2  -6  84 S3        30.48S
DENISON *      CLEAR      5  -2  72 CALM      30.47S
LE MARS *      CLEAR      0  -4  85 CALM      30.47F
ORANGE CITY *  CLEAR      3  -2  78 SE6       30.44S WCI  -8
SHELDON *      CLEAR     -2  -8  78 S6        30.44S WCI -14
SIOUX CITY     CLEAR      2  -3  80 E6        30.48S WCI  -9
SPENCER        CLEAR     -1  -7  75 S13       30.47S WCI -19
STORM LAKE *   CLEAR     -2  -8  78 S10       30.47S WCI -19
$$

IAZ055>058-069>071-079>083-090>094-280900-
   SOUTHWEST IOWA

CITY           SKY/WX    TMP DP  RH WIND       PRES   REMARKS
ATLANTIC *     CLEAR      0  -6  78 CALM      30.52S
AUDUBON *      CLEAR     -8 -13  77 CALM      30.51R
CLARINDA *     CLOUDY     9   3  78 S3        30.55S
COUNCIL BLFS * CLEAR      7   0  72 SE7       30.48S WCI  -5
CRESTON *      CLEAR      1  -4  78 SE7       30.52S WCI -11
HARLAN  *      CLEAR      3   0  85 SE3       30.54S
LAMONI         PTCLDY     5  -1  76 SE5       30.53F WCI  -4
RED OAK *      CLEAR      7   1  78 S5        30.53S WCI  -2
SHENANDOAH *   CLEAR      7   1  78 SE8       30.54S WCI  -6
$$

IAZ047>049-059>061-072>074-084-280900-
   CENTRAL IOWA

CITY           SKY/WX    TMP DP  RH WIND       PRES   REMARKS
AMES           CLEAR     -7 -12  79 CALM      30.57F
ANKENY *       CLEAR     -4  -9  77 CALM      30.58F
CHARITON *     MOCLDY     1  -6  71 SE7       30.56F WCI -11
DES MOINES     CLEAR      4  -3  73 SE6       30.57F WCI  -7
GRINNELL*      PTCLDY    -4  -8  84 SE6       30.58S WCI -16
KNOXVILLE *    CLEAR      1  -6  71 SE7       30.57S WCI -11
MARSHALLTOWN   PTCLDY   -10 -14  82 SE7       30.57F WCI -25
PELLA *        PTCLDY    -4  -6  92 SE6       30.61S WCI -16
PERRY *          N/A     -2  -6  84 E6        30.55S WCI -14
$$

IAZ004>006-015-016-023>025-035-036-280900-
   NORTH CENTRAL IOWA

CITY           SKY/WX    TMP DP  RH WIND       PRES   REMARKS
ALGONA *       PTCLDY    -2  -6  84 S12       30.51F WCI -20
CLARION *      CLEAR     -8 -11  84 SE10      30.53F WCI -26
ESTHERVILLE    PTCLDY    -9 -12  87 S9        30.48S WCI -26
FORT DODGE *   PTCLDY    -8 -11  84 CALM      30.53S
MASON CITY     PTCLDY   -13 -17  82 S7        30.54F WCI -29
FOREST CITY *  CLEAR     -9 -17  70 CALM      30.52F
IOWA FALLS *     N/A    -13 -18  77 SE5       30.56F WCI -25
$$

IAZ007>011-017>019-026>030-037>042-050>054-066-280900-
   NORTHEAST IOWA

CITY           SKY/WX    TMP DP  RH WIND       PRES   REMARKS
CEDAR RAPIDS   MOCLDY   -10 -12  91 E3        30.61S
CHARLES CITY * CLEAR     -8 -13  77 S8        30.57S WCI -23
CLINTON *      PTCLDY    -9 -11  92 CALM      30.67S
DECORAH *      CLEAR     -6 -11  77 SW5       30.56S WCI -17
DUBUQUE        MOCLDY   -14 -18  82 S3        30.59F
MONTICELLO *   CLEAR    -20 -29  63 CALM      30.63F HAZE
OELWEIN *      CLEAR     -9 -15  77 S7        30.59S WCI -24
WATERLOO       PTCLDY   -22 -27  77 CALM      30.60S
$$

IAZ064-065-067-068-078-280900-
   EAST CENTRAL IOWA

CITY           SKY/WX    TMP DP  RH WIND       PRES   REMARKS
DAVENPORT      MOCLDY    -6 -12  75 CALM      30.65S
IOWA CITY      MOCLDY    -9 -12  87 CALM      30.66S
MT. PLEASANT * MOCLDY    -4  -9  77 SE6       30.64R WCI -16
MUSCATINE *    CLEAR    -11 -17  77 CALM      30.68S
QUAD CITIES    PTCLDY   -16 -22  74 CALM      30.67S
$$

IAZ062-063-075>077-085>089-095>099-280900-
   SOUTHEAST IOWA

CITY           SKY/WX    TMP DP  RH WIND       PRES   REMARKS
BURLINGTON     PTCLDY    -2  -7  79 E3        30.64S
FAIRFIELD *    MOCLDY    -4  -9  77 SE3       30.63S
FORT MADISON * CLEAR      0  -6  78 CALM      30.64S
KEOKUK *       CLEAR      3  -4  72 E6        30.64R WCI  -8
OSKALOOSA *      N/A     -2  -8  78 SE7       30.61S WCI -16
CENTERVILLE *  PTCLDY     3  -2  78 E5        30.59S WCI  -6
OTTUMWA        PTCLDY    -2  -8  76 SE6       30.60S WCI -14
WASHINGTON *     N/A     -8  -9  92 SE5       30.63S WCI -19
$$

ABBREVIATIONS USED IN REMARKS
   TC - TEMPERATURES IN CELSIUS
  WCI - WIND CHILL INDEX
   HX - HEAT INDEX
  VSB - VISIBILITY
$$




USA.gov is the U.S. government's official web portal to all federal, state and local government web resources and services.